Location: Gouy
(50.0008°N, 3.2556°E)
Time: 03:26:24
(UTC+00:00)

CZ-2C R/B - Pass Details

Date: 23 May 2024
Orbit: 784 x 868 km, 98.3° (Epoch: 17 June)

Event Time Altitude Azimuth Distance (km) Brightness Sun altitude
Exits shadow 02:29:15 11° 195° (SSW) 2,278 4.4 -10.4°
Maximum altitude 02:33:54 39° 263° (W) 1,160 3.1 -10.0°
Drops below altitude 10° 02:38:46 10° 332° (NNW) 2,361 5.3 -9.5°
Sets 02:41:16 0° 341° (NNW) 3,302 6.2 -9.2°
